DW0000 Weather Reports


Display with metric or nautical units.
time (UTC)temp
F
wind
direction
speed
MPH
gust
MPH
rain 1hr
in
rain 24hr
in
rain mn
in
humidity
%
barometer
mb
20260506215505 66 66 4.0 15.0 0.00 0.03 0.02 87 1023.2
20260506215006 65 42 5.0 9.0 0.00 0.03 0.02 90 1023.2
20260506214506 65 46 4.0 9.0 0.00 0.03 0.02 91 1023.2
20260506212506 64 73 4.0 9.0 0.00 0.03 0.02 98 1023.5
20260506212004 63 97 5.0 8.0 0.00 0.03 0.02 99 1023.4
20260506211508 63 84 5.0 8.0 0.00 0.03 0.02 99 1023.6
20260506211012 63 75 3.0 9.0 0.00 0.03 0.02 99 1023.5
20260506210513 62 93 3.0 8.0 0.00 0.03 0.02 99 1023.6
20260506205505 62 115 3.0 6.0 0.00 0.03 0.02 99 1023.7
20260506204504 61 94 3.0 6.0 0.00 0.03 0.02 99 1023.6
20260506204004 61 106 3.0 7.0 0.00 0.03 0.02 99 1023.7
20260506203504 60 118 4.0 8.0 0.00 0.03 0.02 99 1023.8
20260506201506 59 103 4.0 6.0 0.00 0.03 0.02 99 1023.7
20260506201004 59 112 5.0 8.0 0.00 0.03 0.02 99 1023.6
20260506200506 58 113 4.0 7.0 0.00 0.03 0.02 99 1023.7
20260506200005 58 105 4.0 8.0 0.00 0.03 0.02 99 1023.6
20260506195504 58 108 5.0 8.0 0.00 0.03 0.02 99 1023.6
20260506195004 58 107 5.0 7.0 0.00 0.03 0.02 99 1023.7
20260506194504 58 116 5.0 7.0 0.00 0.03 0.02 99 1023.8
20260506194006 58 115 5.0 6.0 0.00 0.03 0.02 99 1023.8
20260506193005 58 109 5.0 7.0 0.00 0.03 0.02 99 1023.7
20260506192504 58 116 5.0 7.0 0.00 0.03 0.02 99 1023.8
20260506192006 58 110 3.0 6.0 0.00 0.03 0.02 99 1023.7
20260506191504 58 98 4.0 6.0 0.00 0.03 0.02 99 1023.7
20260506191005 58 101 4.0 9.0 0.00 0.03 0.02 99 1023.7
20260506184505 59 103 5.0 7.0 0.00 0.03 0.02 99 1023.6
20260506183506 59 93 6.0 8.0 0.00 0.03 0.02 99 1023.7
20260506181005 58 95 4.0 6.0 0.00 0.02 0.02 99 1023.6
20260506180504 58 99 4.0 7.0 0.00 0.02 0.02 99 1023.5
20260506180005 58 103 5.0 8.0 0.00 0.02 0.02 99 1023.6
20260506175506 59 103 5.0 6.0 0.00 0.02 0.02 99 1023.7
20260506173506 59 91 6.0 7.0 0.00 0.02 0.02 99 1023.7
20260506173005 59 91 5.0 7.0 0.00 0.02 0.02 99 1023.7
20260506172505 59 95 4.0 6.0 0.00 0.02 0.02 99 1023.6
20260506171506 59 103 4.0 6.0 0.00 0.02 0.02 99 1023.7
20260506171004 59 105 5.0 7.0 0.00 0.02 0.02 99 1023.7
20260506170504 59 115 4.0 6.0 0.00 0.02 0.02 99 1023.8
20260506170007 59 109 3.0 5.0 0.00 0.02 0.02 99 1023.8
20260506165508 60 110 3.0 6.0 0.00 0.02 0.02 99 1023.8
20260506165006 60 109 4.0 6.0 0.00 0.02 0.02 99 1023.8
20260506164507 60 95 3.0 5.0 0.00 0.02 0.02 99 1023.8
20260506162506 60 78 3.0 5.0 0.00 0.02 0.02 99 1024.2
20260506161508 60 104 3.0 5.0 0.00 0.02 0.02 99 1024.3
20260506161006 60 103 3.0 5.0 0.00 0.02 0.02 99 1024.1
20260506160507 60 109 3.0 5.0 0.00 0.02 0.02 99 1024.3
20260506155508 60 117 3.0 5.0 0.00 0.02 0.02 99 1024.3
20260506155007 60 104 3.0 5.0 0.00 0.02 0.02 99 1024.5
20260506154506 60 82 3.0 3.0 0.00 0.02 0.02 99 1024.3
20260506154006 60 56 1.0 2.0 0.00 0.02 0.02 99 1024.4
20260506153006 60 85 2.0 3.0 0.00 0.02 0.02 99 1024.5
20260506152507 60 93 2.0 2.0 0.00 0.02 0.02 99 1024.5
20260506152008 60 107 2.0 3.0 0.00 0.02 0.02 99 1024.4
20260506151507 60 108 2.0 5.0 0.00 0.02 0.02 99 1024.5
20260506151006 60 119 2.0 3.0 0.00 0.02 0.02 99 1024.5
20260506150506 60 117 2.0 2.0 0.00 0.02 0.02 99 1024.6
20260506150006 60 83 1.0 2.0 0.00 0.02 0.02 99 1024.6
20260506145006 60 90 2.0 3.0 0.00 0.02 0.02 99 1024.5
20260506144006 59 91 1.0 2.0 0.00 0.02 0.02 99 1024.8
20260506143006 59 22 0.0 1.0 0.00 0.02 0.02 99 1025.1
20260506142007 59 358 1.0 3.0 0.00 0.02 0.02 99 1025.1
20260506141006 59 73 2.0 3.0 0.00 0.02 0.02 99 1025.0
20260506140506 59 71 2.0 5.0 0.00 0.02 0.02 99 1024.9
20260506135506 59 87 3.0 5.0 0.00 0.02 0.02 99 1025.2
20260506134506 59 95 3.0 5.0 0.00 0.02 0.02 99 1025.1
20260506134007 58 101 3.0 7.0 0.00 0.02 0.02 99 1025.2
20260506133507 58 124 3.0 6.0 0.00 0.02 0.02 99 1025.3
20260506133008 58 119 4.0 6.0 0.00 0.02 0.02 99 1025.5
20260506125008 58 89 3.0 5.0 0.01 0.02 0.02 99 1025.6
20260506123506 59 99 3.0 6.0 0.02 0.02 0.02 99 1025.6
20260506123006 59 87 4.0 8.0 0.02 0.02 0.02 99 1025.6
20260506122006 59 130 3.0 7.0 0.02 0.02 0.02 99 1025.7
20260506121506 59 117 5.0 7.0 0.02 0.02 0.02 99 1025.9
20260506121007 59 46 3.0 7.0 0.01 0.02 0.01 99 1025.8
20260506120006 59 58 1.0 3.0 0.00 0.00 0.00 99 1025.7
20260506115507 59 344 1.0 2.0 0.00 0.00 0.00 99 1025.8
20260506115008 59 37 2.0 8.0 0.00 0.00 0.00 99 1025.9
20260506114506 59 34 3.0 7.0 0.00 0.00 0.00 99 1025.5
20260506112508 59 97 6.0 8.0 0.00 0.00 0.00 98 1025.8
20260506112006 58 91 5.0 8.0 0.00 0.00 0.00 98 1025.9
20260506110006 59 90 3.0 5.0 0.00 0.00 0.00 97 1025.9
20260506105506 59 99 2.0 3.0 0.00 0.00 0.00 97 1025.9
20260506104006 59 84 2.0 5.0 0.00 0.00 0.00 96 1026.1
20260506103506 59 100 3.0 5.0 0.00 0.00 0.00 96 1026.1
20260506101507 60 42 1.0 5.0 0.00 0.00 0.00 96 1026.2
20260506101006 60 98 2.0 3.0 0.00 0.00 0.00 96 1026.1
20260506094507 59 85 3.0 5.0 0.00 0.00 0.00 96 1026.2
20260506094008 59 91 2.0 5.0 0.00 0.00 0.00 96 1026.1
20260506092006 59 94 4.0 7.0 0.00 0.00 0.00 96 1026.0
20260506091008 59 101 4.0 6.0 0.00 0.00 0.00 95 1026.0
20260506090506 60 91 5.0 7.0 0.00 0.00 0.00 95 1026.0
20260506090006 60 94 4.0 7.0 0.00 0.00 0.00 95 1026.1
20260506085506 60 89 5.0 8.0 0.00 0.00 0.00 95 1026.0
20260506084006 60 90 3.0 6.0 0.00 0.00 0.00 94 1026.1
20260506083008 60 88 5.0 7.0 0.00 0.00 0.00 94 1026.1
20260506082506 60 100 5.0 8.0 0.00 0.00 0.00 94 1026.0
20260506081506 60 86 4.0 8.0 0.00 0.00 0.00 93 1026.1
20260506081007 60 99 4.0 8.0 0.00 0.00 0.00 93 1026.2
20260506073507 61 81 3.0 6.0 0.00 0.00 0.00 92 1026.1
20260506073006 61 87 2.0 6.0 0.00 0.00 0.00 91 1026.1
20260506071006 61 66 4.0 7.0 0.00 0.00 0.00 90 1026.2
20260506070506 61 70 4.0 7.0 0.00 0.00 0.00 89 1026.1
20260506062008 61 60 2.0 8.0 0.00 0.00 0.00 87 1025.9
20260506061506 62 58 2.0 6.0 0.00 0.00 0.00 86 1026.0
20260506061007 62 41 3.0 7.0 0.00 0.00 0.00 86 1025.8
20260506051006 64 18 6.0 10.0 0.00 0.00 0.00 82 1026.0
20260506043007 67 39 7.0 16.0 0.00 0.00 0.00 79 1026.0
20260506042006 67 18 8.0 15.0 0.00 0.00 0.00 78 1026.0
20260506041506 67 15 10.0 15.0 0.00 0.00 0.00 78 1026.1
20260506041006 67 29 9.0 13.0 0.00 0.00 0.00 78 1026.0
20260506035007 68 348 9.0 13.0 0.00 0.00 0.00 77 1026.1
20260506034505 68 36 6.0 12.0 0.00 0.00 0.00 76 1026.1
20260506032007 69 43 8.0 14.0 0.00 0.00 0.00 76 1026.1
20260506031505 69 24 7.0 14.0 0.00 0.00 0.00 75 1026.1
20260506030505 69 12 5.0 14.0 0.00 0.00 0.00 75 1026.1
20260506030007 70 30 7.0 14.0 0.00 0.00 0.00 76 1026.2
20260506025505 70 50 5.0 12.0 0.00 0.00 0.00 75 1026.2
20260506024507 69 61 5.0 12.0 0.00 0.00 0.00 76 1026.4
20260506023007 69 28 5.0 13.0 0.00 0.00 0.00 75 1026.4
20260506021505 68 0 9.0 15.0 0.00 0.00 0.00 77 1026.2
20260506021007 68 47 8.0 13.0 0.00 0.00 0.00 76 1026.3
20260506020505 69 31 7.0 12.0 0.00 0.00 0.00 76 1026.4
20260506015507 70 39 4.0 13.0 0.00 0.00 0.00 75 1026.3
20260506015005 70 36 6.0 13.0 0.00 0.00 0.00 76 1026.4
20260506014505 70 44 9.0 14.0 0.00 0.00 0.00 75 1026.4
20260506014007 69 42 6.0 17.0 0.00 0.00 0.00 76 1026.3
20260506013006 69 27 6.0 15.0 0.00 0.00 0.00 77 1026.4
20260506011505 67 43 6.0 12.0 0.00 0.00 0.00 81 1026.6
20260506010005 67 12 7.0 10.0 0.00 0.00 0.00 80 1026.7
20260506005506 68 41 6.0 13.0 0.00 0.00 0.00 79 1026.7
20260506004505 67 21 8.0 14.0 0.00 0.00 0.00 80 1026.7
20260506003006 68 31 7.0 14.0 0.00 0.00 0.00 79 1027.0
20260506002005 68 43 6.0 12.0 0.00 0.00 0.00 77 1027.1
20260506001505 68 10 6.0 13.0 0.00 0.00 0.00 78 1027.1
20260506000005 69 35 6.0 13.0 0.00 0.00 0.00 79 1027.3
20260505235005 67 31 7.0 12.0 0.00 0.00 0.00 80 1027.5
20260505234506 67 45 6.0 13.0 0.00 0.00 0.00 81 1027.6
20260505234005 67 77 6.0 16.0 0.00 0.00 0.00 80 1027.6
20260505233505 67 113 5.0 9.0 0.00 0.00 0.00 80 1027.6
20260505233006 67 71 4.0 9.0 0.00 0.00 0.00 82 1027.8
20260505230005 65 20 3.0 9.0 0.00 0.00 0.00 87 1027.9
20260505225005 65 51 3.0 9.0 0.00 0.00 0.00 88 1028.0
20260505224507 64 50 5.0 10.0 0.00 0.00 0.00 88 1028.0
20260505224005 64 36 4.0 13.0 0.00 0.00 0.00 88 1028.0
20260505223505 64 43 3.0 13.0 0.00 0.00 0.00 89 1028.1
20260505223006 64 58 2.0 6.0 0.00 0.00 0.00 89 1028.1
20260505222506 64 68 3.0 10.0 0.00 0.00 0.00 89 1028.1
20260505220505 63 32 3.0 6.0 0.00 0.00 0.00 92 1028.3